Back to catalog

EKRAN 2 DEB

AliveGEO
NORAD 59986·DEBRIS·🇷🇺 Russia

Launched Sep 20, 1977 from Baikonur Cosmodrome

Loading…

TLE

FreshSource: Space-Track

Epoch: Sep 14, 2026, 02:06 UTC

1 59986U 77092M   26257.08770347 -.00000081  00000-0  00000-0 0  9990
2 59986   3.5539 269.4280 0037710 122.1284  50.7282  1.00942351 47429

Track EKRAN 2 DEB in real time with AllMySat

Download on the App Store